When you browse on this site, cookies collect data to enhance your experience and personalize the content and advertising you see.
Visit our Privacy Policy to learn more. By continuing to use the site, you agree to this use of cookies and data.
  • In Sweden
  • List of Countries
  • For 7 days
  • Water Temperature
  • Weather Map
  • Weather Widgets
  • user-avatar
    Login

    Hourly Weather Semarang

    Today, 28 May, Thursday

    Time Temperature Precipitation Wind Pressure Humidity
    00:00 +27°C° 0 mm 1 mps 758 mmHg 89%
    01:00 +27°C° 0 mm 2 mps 758 mmHg 89%
    02:00 +27°C° 0.1 mm 1 mps 757 mmHg 89%
    03:00 +27°C° 0.1 mm 1 mps 757 mmHg 88%
    04:00 +27°C° 0.1 mm 1 mps 757 mmHg 88%
    05:00 +27°C° 0 mm 1 mps 757 mmHg 87%
    06:00 +27°C° 0 mm 1 mps 758 mmHg 86%
    07:00 +28°C° 0 mm 2 mps 758 mmHg 85%
    08:00 +29°C° 0 mm 2 mps 758 mmHg 79%
    09:00 +31°C° 0 mm 2 mps 759 mmHg 73%
    10:00 +33°C° 0 mm 1 mps 759 mmHg 67%
    11:00 +33°C° 0.3 mm 1 mps 758 mmHg 67%
    12:00 +33°C° 0.3 mm 1 mps 758 mmHg 67%
    13:00 +33°C° 0.3 mm 1 mps 757 mmHg 67%
    14:00 +33°C° 0.7 mm 1 mps 757 mmHg 70%
    15:00 +32°C° 0.7 mm 1 mps 757 mmHg 73%
    16:00 +32°C° 0.7 mm 1 mps 756 mmHg 76%
    17:00 +31°C° 0.7 mm 1 mps 757 mmHg 79%
    18:00 +29°C° 0.7 mm 1 mps 758 mmHg 83%
    19:00 +28°C° 0.7 mm 1 mps 758 mmHg 87%
    20:00 +28°C° 0.1 mm 1 mps 758 mmHg 87%
    21:00 +28°C° 0.1 mm 2 mps 758 mmHg 88%
    22:00 +28°C° 0.1 mm 2 mps 759 mmHg 88%
    23:00 +27°C° 0 mm 2 mps 758 mmHg 89%

    Tomorrow, 29 May, Friday

    Time Temperature Precipitation Wind Pressure Humidity
    00:00 +27°C° 0 mm 2 mps 758 mmHg 89%
    01:00 +27°C° 0 mm 3 mps 758 mmHg 90%
    02:00 +27°C° 0 mm 3 mps 757 mmHg 90%
    03:00 +27°C° 0 mm 3 mps 757 mmHg 89%
    04:00 +26°C° 0 mm 2 mps 757 mmHg 89%
    05:00 +27°C° 0 mm 3 mps 758 mmHg 89%
    06:00 +27°C° 0 mm 3 mps 758 mmHg 88%
    07:00 +28°C° 0 mm 3 mps 758 mmHg 87%
    08:00 +29°C° 0 mm 3 mps 758 mmHg 82%
    09:00 +30°C° 0 mm 4 mps 758 mmHg 77%
    10:00 +33°C° 0 mm 4 mps 758 mmHg 72%
    11:00 +33°C° 0 mm 4 mps 758 mmHg 69%
    12:00 +34°C° 0 mm 4 mps 757 mmHg 67%
    13:00 +35°C° 0 mm 4 mps 757 mmHg 65%
    14:00 +34°C° 0.3 mm 4 mps 757 mmHg 70%
    15:00 +34°C° 0.3 mm 4 mps 756 mmHg 74%
    16:00 +33°C° 0.3 mm 4 mps 756 mmHg 78%
    17:00 +32°C° 0.9 mm 4 mps 757 mmHg 81%
    18:00 +30°C° 0.9 mm 4 mps 757 mmHg 84%
    19:00 +29°C° 0.9 mm 4 mps 758 mmHg 86%
    20:00 +29°C° 0.2 mm 3 mps 758 mmHg 86%
    21:00 +28°C° 0.2 mm 3 mps 759 mmHg 87%
    22:00 +28°C° 0.2 mm 3 mps 759 mmHg 87%
    23:00 +28°C° 0.1 mm 3 mps 759 mmHg 88%

    Day after tomorrow, 30 May, Saturday

    Time Temperature Precipitation Wind Pressure Humidity
    00:00 +27°C° 0.1 mm 3 mps 758 mmHg 89%
    01:00 +27°C° 0.1 mm 3 mps 758 mmHg 90%
    02:00 +27°C° 0 mm 3 mps 758 mmHg 91%
    03:00 +27°C° 0 mm 2 mps 758 mmHg 91%
    04:00 +27°C° 0 mm 2 mps 758 mmHg 91%
    05:00 +27°C° 0 mm 2 mps 758 mmHg 90%
    06:00 +28°C° 0 mm 2 mps 758 mmHg 89%
    07:00 +28°C° 0 mm 2 mps 759 mmHg 88%
    08:00 +30°C° 0 mm 2 mps 759 mmHg 81%
    09:00 +32°C° 0 mm 2 mps 759 mmHg 74%
    10:00 +34°C° 0 mm 2 mps 759 mmHg 67%
    11:00 +35°C° 0.6 mm 3 mps 758 mmHg 67%
    12:00 +35°C° 0.6 mm 3 mps 758 mmHg 68%
    13:00 +35°C° 0.6 mm 3 mps 757 mmHg 68%
    14:00 +34°C° 1.3 mm 2 mps 757 mmHg 71%
    15:00 +34°C° 1.3 mm 2 mps 757 mmHg 74%
    16:00 +33°C° 1.3 mm 1 mps 757 mmHg 77%
    17:00 +31°C° 1.1 mm 1 mps 757 mmHg 79%
    18:00 +30°C° 1.1 mm 1 mps 758 mmHg 82%
    19:00 +29°C° 1.1 mm 1 mps 758 mmHg 85%
    20:00 +29°C° 2 mm 1 mps 758 mmHg 86%
    21:00 +28°C° 2 mm 2 mps 759 mmHg 88%
    22:00 +28°C° 2 mm 2 mps 759 mmHg 90%
    23:00 +27°C° 0.7 mm 2 mps 759 mmHg 90%

    31 May, Sunday

    Time Temperature Precipitation Wind Pressure Humidity
    00:00 +27°C° 0.7 mm 2 mps 758 mmHg 90%
    01:00 +27°C° 0.7 mm 2 mps 758 mmHg 90%
    02:00 +27°C° 0 mm 2 mps 758 mmHg 90%
    03:00 +27°C° 0 mm 2 mps 758 mmHg 90%
    04:00 +27°C° 0 mm 2 mps 757 mmHg 91%
    05:00 +27°C° 0 mm 3 mps 758 mmHg 89%
    06:00 +28°C° 0 mm 3 mps 758 mmHg 88%
    07:00 +28°C° 0 mm 3 mps 759 mmHg 87%
    08:00 +30°C° 0 mm 3 mps 759 mmHg 80%
    09:00 +31°C° 0 mm 3 mps 759 mmHg 74%
    10:00 +34°C° 0 mm 3 mps 758 mmHg 68%
    11:00 +34°C° 0.4 mm 3 mps 758 mmHg 69%
    12:00 +34°C° 0.4 mm 3 mps 757 mmHg 70%
    13:00 +34°C° 0.4 mm 2 mps 757 mmHg 71%
    14:00 +34°C° 1.4 mm 2 mps 757 mmHg 74%
    15:00 +32°C° 1.4 mm 2 mps 756 mmHg 76%
    16:00 +32°C° 1.4 mm 2 mps 756 mmHg 79%
    17:00 +31°C° 0.8 mm 1 mps 757 mmHg 82%
    18:00 +30°C° 0.8 mm 1 mps 757 mmHg 85%
    19:00 +29°C° 0.8 mm 1 mps 757 mmHg 88%
    20:00 +28°C° 0.5 mm 1 mps 758 mmHg 89%
    21:00 +28°C° 0.5 mm 2 mps 758 mmHg 90%
    22:00 +27°C° 0.5 mm 2 mps 758 mmHg 91%
    23:00 +27°C° 0 mm 2 mps 758 mmHg 90%

    1 June, Monday

    Time Temperature Precipitation Wind Pressure Humidity
    00:00 +27°C° 0 mm 3 mps 758 mmHg 90%
    01:00 +27°C° 0 mm 3 mps 757 mmHg 89%
    02:00 +27°C° 0.1 mm 3 mps 757 mmHg 89%
    03:00 +27°C° 0.1 mm 3 mps 757 mmHg 89%
    04:00 +27°C° 0.1 mm 2 mps 757 mmHg 89%
    05:00 +27°C° 1.2 mm 2 mps 758 mmHg 88%
    06:00 +27°C° 1.2 mm 2 mps 758 mmHg 88%
    07:00 +27°C° 1.2 mm 2 mps 759 mmHg 88%
    08:00 +28°C° 1.7 mm 2 mps 759 mmHg 88%
    09:00 +28°C° 1.7 mm 2 mps 759 mmHg 89%
    10:00 +28°C° 1.7 mm 2 mps 759 mmHg 89%
    11:00 +29°C° 0.1 mm 2 mps 758 mmHg 86%
    12:00 +29°C° 0.1 mm 1 mps 758 mmHg 84%
    13:00 +29°C° 0.1 mm 1 mps 757 mmHg 81%
    14:00 +29°C° 0 mm 1 mps 757 mmHg 81%
    15:00 +29°C° 0 mm 1 mps 757 mmHg 81%
    16:00 +29°C° 0 mm 1 mps 757 mmHg 81%
    17:00 +29°C° 0 mm 1 mps 757 mmHg 84%
    18:00 +28°C° 0 mm 1 mps 758 mmHg 86%
    19:00 +27°C° 0 mm 1 mps 758 mmHg 88%
    20:00 +27°C° 0 mm 1 mps 758 mmHg 87%
    21:00 +27°C° 0 mm 1 mps 759 mmHg 86%
    22:00 +27°C° 0 mm 1 mps 759 mmHg 85%
    23:00 +27°C° 0 mm 1 mps 759 mmHg 85%

    2 June, Tuesday

    Time Temperature Precipitation Wind Pressure Humidity
    00:00 +26°C° 0 mm 1 mps 758 mmHg 85%
    01:00 +26°C° 0 mm 1 mps 758 mmHg 85%
    02:00 +26°C° 0 mm 2 mps 758 mmHg 84%
    03:00 +26°C° 0 mm 2 mps 757 mmHg 84%
    04:00 +26°C° 0 mm 2 mps 757 mmHg 83%
    05:00 +26°C° 0 mm 2 mps 757 mmHg 83%
    06:00 +26°C° 0 mm 2 mps 758 mmHg 82%
    07:00 +27°C° 0 mm 2 mps 758 mmHg 81%
    08:00 +29°C° 0 mm 2 mps 758 mmHg 76%
    09:00 +31°C° 0 mm 2 mps 758 mmHg 71%
    10:00 +32°C° 0 mm 2 mps 758 mmHg 65%
    11:00 +34°C° 0 mm 2 mps 758 mmHg 65%
    12:00 +34°C° 0 mm 2 mps 757 mmHg 64%
    13:00 +34°C° 0 mm 2 mps 756 mmHg 63%
    14:00 +34°C° 0.2 mm 2 mps 756 mmHg 67%
    15:00 +32°C° 0.2 mm 2 mps 756 mmHg 70%
    16:00 +32°C° 0.2 mm 2 mps 756 mmHg 74%
    17:00 +30°C° 0.1 mm 1 mps 756 mmHg 78%
    18:00 +29°C° 0.1 mm 1 mps 757 mmHg 82%
    19:00 +28°C° 0.1 mm 1 mps 758 mmHg 86%
    20:00 +28°C° 0.1 mm 1 mps 758 mmHg 86%
    21:00 +28°C° 0.1 mm 1 mps 758 mmHg 87%
    22:00 +27°C° 0.1 mm 1 mps 758 mmHg 87%
    23:00 +27°C° 0 mm 1 mps 758 mmHg 87%
    Show more